Regional Weather Roundup
Issued by NWS

Home | Current Version | Previous Version | Text Only | Print | Product List | Glossary On
Versions: 1 2 3 4 5 6 7 8 9 10 11 12 13 14 15 16 17 18 19 20 21 22 23 24 25 26 27 28 29 30 31 32 33 34 35 36 37 38 39 40 41 42 43 44 45 46 47 48 49 50
000
ASUS44 KJAN 281910
RWRMS

MISSISSIPPI HOURLY WEATHER ROUNDUP
NATIONAL WEATHER SERVICE JACKSON MS
100 PM CST SUN DEC 28 2014

NOTE: "FAIR: INDICATES FEW OR NO CLOUDS BELOW 12,000 FEET WITH NO
SIGNIFICANT WEATHER AND/OR OBSTRUCTIONS TO VISIBILITY.

MSZ001>002-007>008-010>013-018>021-025>028-034>036-282000-
NORTHWEST MISSISSIPPI

CITY           SKY/WX    TMP DP  RH WIND       PRES   REMARKS
GREENWOOD      LGT RAIN  44  42  93 N7        30.15F
GREENVILLE     LGT RAIN  43  40  89 N12       30.16F FOG
OLIVE BRANCH   CLOUDY    37  37 100 N6        30.16S FOG     WCI  33
$$

MSZ003>006-009-014>017-022>024-029>033-037>039-282000-
NORTHEAST MISSISSIPPI

CITY           SKY/WX    TMP DP  RH WIND       PRES   REMARKS
COLUMBUS AFB   CLOUDY    48  46  93 NW7       30.10F
GOLDN TRIANGLE CLOUDY    50  45  81 NW7       30.09F
TUPELO         CLOUDY    45  41  86 N12       30.13R
$$

MSZ040-058-282000-
CENTRAL MISSISSIPPI

CITY           SKY/WX    TMP DP  RH WIND       PRES   REMARKS
JACKSON INTL   CLOUDY    49  46  90 W8        30.13S
JACKSON HAWKNS CLOUDY    46  45  96 NW6       30.13F
MERIDIAN KEY   CLOUDY    58  55  90 N7        30.07F
MERIDIAN NAS   CLOUDY    57  54  89 N6        30.08F FOG
VICKSBURG      LGT RAIN  46  43  89 N8        30.14F
$$

MSZ059>079-282000-
SOUTH MISSISSIPPI

CITY           SKY/WX    TMP DP  RH WIND       PRES   REMARKS
HATTIESBURG    CLOUDY    60  58  92 NW9       30.06F
MCCOMB         CLOUDY    53  50  89 NW9       30.09F
NATCHEZ        CLOUDY    46  43  87 N7        30.12F
PINE BELT      CLOUDY    57  54  88 N8        30.07F
$$

MSZ080>082-282000-
COASTAL MISSISSIPPI

CITY           SKY/WX    TMP DP  RH WIND       PRES   REMARKS
BAY ST LOUIS   MOSUNNY   73  63  68 N12       30.02F
BILOXI         FOG       64  64 100 S7        29.99F VSB 1
PASCAGOULA     CLOUDY    68  67  96 SE6       30.02F FOG
GULFPORT       CLOUDY    65  63  93 SE10      30.02F FOG
$$


USA.gov is the U.S. government's official web portal to all federal, state and local government web resources and services.